Bentonville, AR

12:17 AM CST on December 09, 2016 (GMT -0600)
Bentonville Municipal-Thaden

Weather History for KVBT - March, 2014

Change the Weather History Date:

Wednesday, March 12, 2014

  Actual Average Record
Temperature  
Mean Temperature 42 °F -  
Max Temperature 48 °F 59 °F 86 °F (1967)
Min Temperature 35 °F 36 °F -12 °F (1948)
Degree Days  
Heating Degree Days 24    
Moisture  
Dew Point 30 °F    
Average Humidity 66    
Maximum Humidity 75    
Minimum Humidity 56    
Precipitation  
Precipitation 0.00 in - - ()
Sea Level Pressure  
Sea Level Pressure 29.94 in    
Wind  
Wind Speed 19 mph (NNW)    
Max Wind Speed 29 mph    
Max Gust Speed 37 mph    
Visibility 10 miles    
Events      
Averages and records for this station are not official NWS values.
T = Trace of Precipitation, MM = Missing Value Source: NWS Daily Summary

Daily Weather History Graph

Daily Weather History Graph

Search for Another Location

Airport or City:

Trip Planner

Search our weather history database for the weather conditions in past years. The results will help you decide how hot, cold, wet, or windy it might be!

Date:

Astronomy

Mar. 12, 2014 Rise Set
Actual Time 7:31 AM CDT 7:21 PM CDT
Civil Twilight 7:06 AM CDT 7:47 PM CDT
Nautical Twilight 6:36 AM CDT 8:17 PM CDT
Astronomical Twilight 6:06 AM CDT 8:47 PM CDT
Moon 3:57 PM CDT (3/12) 4:58 AM CDT (3/12)
Length of Visible Light 12h 41m
Length of Day
11h 49m
Waxing Gibbous, 85% of the Moon is Illuminated
Mar 12
Waxing Gibbous
Mar 16
Full
Mar 23
Last Quarter
Mar 30
New
Apr 7
First Quarter

Hourly Weather History & Observations

Time (CDT) Temp. Windchill Dew Point Humidity Pressure Visibility Wind Dir Wind Speed Gust Speed Precip Events Conditions
12:15 AM 48.2 °F - 35.6 °F 62% 29.73 in 10.0 mi NNW 18.4 mph 23.0 mph N/A   Overcast
12:35 AM 48.2 °F - 35.6 °F 62% 29.77 in 10.0 mi NW 17.3 mph 25.3 mph N/A   Overcast
12:55 AM 48.2 °F - 35.6 °F 62% 29.78 in 10.0 mi NNW 16.1 mph 34.5 mph N/A   Overcast
1:15 AM 46.4 °F 39.0 °F 35.6 °F 66% 29.80 in 10.0 mi North 19.6 mph 32.2 mph N/A   Overcast
1:35 AM 46.4 °F 37.4 °F 35.6 °F 66% 29.82 in 10.0 mi North 28.8 mph 36.8 mph N/A   Overcast
1:55 AM 44.6 °F 37.2 °F 33.8 °F 66% 29.83 in 10.0 mi North 17.3 mph 26.5 mph N/A   Overcast
2:15 AM 42.8 °F 34.0 °F 33.8 °F 70% 29.85 in 10.0 mi NNW 20.7 mph 27.6 mph N/A   Overcast
2:35 AM 39.2 °F 28.0 °F 32.0 °F 75% 29.87 in 10.0 mi North 26.5 mph 35.7 mph N/A   Overcast
2:55 AM 39.2 °F 29.3 °F 30.2 °F 70% 29.89 in 10.0 mi North 20.7 mph 33.4 mph N/A   Overcast
3:15 AM 39.2 °F 27.8 °F 30.2 °F 70% 29.90 in 10.0 mi North 27.6 mph 35.7 mph N/A   Overcast
3:35 AM 39.2 °F 29.0 °F 30.2 °F 70% 29.92 in 10.0 mi North 21.9 mph 35.7 mph N/A   Overcast
3:55 AM 39.2 °F 30.2 °F 30.2 °F 70% 29.92 in 10.0 mi North 17.3 mph 29.9 mph N/A   Overcast
4:15 AM 39.2 °F 29.6 °F 30.2 °F 70% 29.92 in 10.0 mi North 19.6 mph 36.8 mph N/A   Overcast
4:35 AM 39.2 °F 29.3 °F 28.4 °F 65% 29.93 in 10.0 mi North 20.7 mph 32.2 mph N/A   Overcast
4:55 AM 39.2 °F 28.5 °F 28.4 °F 65% 29.94 in 10.0 mi North 24.2 mph 31.1 mph N/A   Overcast
5:15 AM 39.2 °F 29.3 °F 28.4 °F 65% 29.96 in 10.0 mi North 20.7 mph 31.1 mph N/A   Overcast
5:35 AM 39.2 °F 30.5 °F 28.4 °F 65% 29.98 in 10.0 mi North 16.1 mph 26.5 mph N/A   Overcast
5:55 AM 37.4 °F 27.8 °F 26.6 °F 65% 30.00 in 10.0 mi North 17.3 mph 29.9 mph N/A   Overcast
6:15 AM 37.4 °F 27.2 °F 26.6 °F 65% 30.01 in 10.0 mi North 19.6 mph 25.3 mph N/A   Overcast
6:35 AM 37.4 °F 27.5 °F 26.6 °F 65% 30.02 in 10.0 mi North 18.4 mph 23.0 mph N/A   Overcast
6:55 AM 37.4 °F 27.2 °F 26.6 °F 65% 30.03 in 10.0 mi North 19.6 mph 25.3 mph N/A   Mostly Cloudy
7:15 AM 37.4 °F 29.3 °F 26.6 °F 65% 30.04 in 10.0 mi North 12.7 mph - N/A   Unknown
7:35 AM 35.6 °F 27.5 °F 26.6 °F 70% 30.05 in 10.0 mi NNW 11.5 mph - N/A   Clear
7:55 AM 35.6 °F 28.0 °F 26.6 °F 70% 30.07 in 10.0 mi NNW 10.4 mph 17.3 mph N/A   Clear
8:15 AM 37.4 °F 28.2 °F 26.6 °F 65% 30.08 in 10.0 mi NNW 16.1 mph - N/A   Clear
8:35 AM 37.4 °F 29.3 °F 26.6 °F 65% 30.09 in 10.0 mi North 12.7 mph 24.2 mph N/A   Clear
8:55 AM 37.4 °F 28.9 °F 26.6 °F 65% 30.10 in 10.0 mi NNW 13.8 mph 23.0 mph N/A   Clear
9:15 AM 39.2 °F 30.8 °F 24.8 °F 56% 30.12 in 10.0 mi North 15.0 mph 20.7 mph N/A   Clear